Starlink 30809

operational
NORAD ID: 58183 Int'l Des: 2023-167 Owner: SPXS Country: US Constellation: starlink
LEOCIRCULAR

Starlink 30809について

説明を読み込み中...

リアルタイム位置

3D地球を読み込み中...

次回通過

高度履歴

Altitude vs Time

uPlot chart will show altitude changes over time

軌道要素

1 58183U 23167J 25302.80996481 .00000440 00000-0 47646-4 0 9990
2 58183 43.0048 137.4294 0001011 264.4188 95.6539 15.02539231111261
Epoch: Oct 29, 2025 • Age: 31 hours

現在のステータス

高度 559.4 km
速度 7.58 km/s
衛星直下点 -3.62°S, 124.01°W
打ち上げ日 Oct 30, 2023
運用期間 2 years
タイプ internet

技術仕様

分類 Payload
質量 730.00 kg
乾燥質量 700.00 kg
総質量 730.00 kg
長さ 0.30 m
直径 4.10 m
スパン 29.00 m
形状 Box + pan
製造者 SPXS
バスタイプ Starlink V2M
フェーズステータス In Orbit
所有者/国 SPXS/US

大規模コンステレーション

Loading constellations...